• în Republica Moldova
  • Lista ţărilor
  • Pe 7 zile
  • Temperatura apei
  • Hartă satelitară
  • Meteo pe hartă
  • Widget-uri
  • user-avatar
    Intrare

    Meteo pe oră la Uige

    Astăzi, 21 Ianuarie, Sâmbătă

    Timp Temperatura Precipitaţii Vânt Presiune Umiditate
    00:00 +21°C° 0 mm 1 m/s 690 mmHg 92%
    01:00 +21°C° 0 mm 1 m/s 690 mmHg 95%
    02:00 +21°C° 0 mm 1 m/s 690 mmHg 96%
    03:00 +21°C° 0 mm 1 m/s 690 mmHg 97%
    04:00 +21°C° 0 mm 1 m/s 690 mmHg 98%
    05:00 +21°C° 0 mm 1 m/s 690 mmHg 96%
    06:00 +22°C° 0 mm 1 m/s 690 mmHg 94%
    07:00 +22°C° 0 mm 1 m/s 690 mmHg 93%
    08:00 +25°C° 0 mm 1 m/s 691 mmHg 80%
    09:00 +28°C° 0 mm 1 m/s 692 mmHg 67%
    10:00 +31°C° 0 mm 1 m/s 692 mmHg 54%
    11:00 +32°C° 0 mm 1 m/s 692 mmHg 49%
    12:00 +33°C° 0 mm 1 m/s 691 mmHg 44%
    13:00 +34°C° 0 mm 1 m/s 691 mmHg 40%
    14:00 +35°C° 0,1 mm 2 m/s 690 mmHg 43%
    15:00 +34°C° 0,1 mm 2 m/s 690 mmHg 47%
    16:00 +32°C° 0,1 mm 2 m/s 689 mmHg 51%
    17:00 +29°C° 0,4 mm 2 m/s 689 mmHg 63%
    18:00 +26°C° 0,4 mm 2 m/s 689 mmHg 75%
    19:00 +24°C° 0,4 mm 2 m/s 689 mmHg 87%
    20:00 +23°C° 0 mm 2 m/s 689 mmHg 90%
    21:00 +21°C° 0 mm 2 m/s 690 mmHg 93%
    22:00 +22°C° 0 mm 1 m/s 691 mmHg 96%
    23:00 +21°C° 0 mm 2 m/s 691 mmHg 97%

    Mâine, 22 Ianuarie, Duminică

    Timp Temperatura Precipitaţii Vânt Presiune Umiditate
    00:00 +21°C° 0 mm 2 m/s 691 mmHg 97%
    01:00 +21°C° 0 mm 2 m/s 691 mmHg 98%
    02:00 +21°C° 0 mm 2 m/s 691 mmHg 97%
    03:00 +22°C° 0 mm 1 m/s 691 mmHg 97%
    04:00 +22°C° 0 mm 1 m/s 690 mmHg 97%
    05:00 +21°C° 0 mm 1 m/s 691 mmHg 96%
    06:00 +21°C° 0 mm 1 m/s 691 mmHg 96%
    07:00 +21°C° 0 mm 1 m/s 691 mmHg 95%
    08:00 +24°C° 0 mm 1 m/s 692 mmHg 81%
    09:00 +27°C° 0 mm 1 m/s 693 mmHg 67%
    10:00 +30°C° 0 mm 1 m/s 693 mmHg 53%
    11:00 +31°C° 0 mm 2 m/s 693 mmHg 48%
    12:00 +32°C° 0 mm 2 m/s 692 mmHg 42%
    13:00 +34°C° 0 mm 2 m/s 692 mmHg 37%
    14:00 +34°C° 0 mm 3 m/s 691 mmHg 39%
    15:00 +34°C° 0 mm 3 m/s 690 mmHg 41%
    16:00 +33°C° 0 mm 3 m/s 690 mmHg 43%
    17:00 +30°C° 0 mm 2 m/s 689 mmHg 52%
    18:00 +27°C° 0 mm 2 m/s 689 mmHg 61%
    19:00 +25°C° 0 mm 2 m/s 689 mmHg 69%
    20:00 +24°C° 0 mm 2 m/s 690 mmHg 73%
    21:00 +23°C° 0 mm 1 m/s 691 mmHg 77%
    22:00 +22°C° 0 mm 1 m/s 691 mmHg 81%
    23:00 +21°C° 0 mm 1 m/s 691 mmHg 83%

    Poimâine, 23 Ianuarie, Luni

    Timp Temperatura Precipitaţii Vânt Presiune Umiditate
    00:00 +20°C° 0 mm 1 m/s 691 mmHg 86%
    01:00 +20°C° 0 mm 1 m/s 690 mmHg 89%
    02:00 +19°C° 0 mm 1 m/s 690 mmHg 90%
    03:00 +19°C° 0 mm 1 m/s 690 mmHg 92%
    04:00 +18°C° 0 mm 2 m/s 690 mmHg 93%
    05:00 +19°C° 0 mm 2 m/s 690 mmHg 93%
    06:00 +19°C° 0 mm 2 m/s 691 mmHg 92%
    07:00 +20°C° 0 mm 2 m/s 691 mmHg 92%
    08:00 +21°C° 0 mm 2 m/s 692 mmHg 87%
    09:00 +23°C° 0 mm 2 m/s 692 mmHg 82%
    10:00 +24°C° 0 mm 2 m/s 693 mmHg 77%
    11:00 +25°C° 0 mm 2 m/s 692 mmHg 71%
    12:00 +27°C° 0 mm 2 m/s 692 mmHg 64%
    13:00 +28°C° 0 mm 3 m/s 692 mmHg 58%
    14:00 +28°C° 0 mm 3 m/s 692 mmHg 61%
    15:00 +27°C° 0 mm 3 m/s 691 mmHg 65%
    16:00 +27°C° 0 mm 4 m/s 691 mmHg 68%
    17:00 +25°C° 0 mm 3 m/s 691 mmHg 77%
    18:00 +23°C° 0 mm 2 m/s 691 mmHg 86%
    19:00 +22°C° 0 mm 1 m/s 691 mmHg 95%
    20:00 +21°C° 0 mm 1 m/s 691 mmHg 96%
    21:00 +21°C° 0 mm 1 m/s 691 mmHg 97%
    22:00 +20°C° 0 mm 1 m/s 692 mmHg 98%
    23:00 +20°C° 0 mm 1 m/s 691 mmHg 97%

    24 Ianuarie, Marţi

    Timp Temperatura Precipitaţii Vânt Presiune Umiditate
    00:00 +20°C° 0 mm 1 m/s 691 mmHg 97%
    01:00 +20°C° 0 mm 1 m/s 691 mmHg 97%
    02:00 +20°C° 0 mm 1 m/s 690 mmHg 97%
    03:00 +19°C° 0 mm 1 m/s 690 mmHg 98%
    04:00 +19°C° 0 mm 1 m/s 690 mmHg 98%
    05:00 +20°C° 0 mm 1 m/s 691 mmHg 97%
    06:00 +21°C° 0 mm 1 m/s 691 mmHg 96%
    07:00 +22°C° 0 mm 1 m/s 692 mmHg 95%
    08:00 +23°C° 0 mm 1 m/s 693 mmHg 88%
    09:00 +24°C° 0 mm 1 m/s 693 mmHg 80%
    10:00 +26°C° 0 mm 2 m/s 693 mmHg 72%
    11:00 +27°C° 0 mm 2 m/s 693 mmHg 65%
    12:00 +29°C° 0 mm 2 m/s 693 mmHg 57%
    13:00 +31°C° 0 mm 2 m/s 692 mmHg 50%
    14:00 +31°C° 0 mm 2 m/s 692 mmHg 51%
    15:00 +30°C° 0 mm 2 m/s 691 mmHg 53%
    16:00 +30°C° 0 mm 2 m/s 691 mmHg 55%
    17:00 +28°C° 0,1 mm 2 m/s 691 mmHg 63%
    18:00 +26°C° 0,1 mm 2 m/s 691 mmHg 71%
    19:00 +24°C° 0,1 mm 1 m/s 691 mmHg 80%
    20:00 +23°C° 0 mm 1 m/s 691 mmHg 85%
    21:00 +22°C° 0 mm 1 m/s 691 mmHg 90%
    22:00 +21°C° 0 mm 1 m/s 691 mmHg 95%
    23:00 +21°C° 0 mm 1 m/s 691 mmHg 96%

    25 Ianuarie, Miercuri

    Timp Temperatura Precipitaţii Vânt Presiune Umiditate
    00:00 +20°C° 0 mm 1 m/s 690 mmHg 96%
    01:00 +20°C° 0 mm 1 m/s 690 mmHg 97%
    02:00 +19°C° 0 mm 1 m/s 690 mmHg 98%
    03:00 +18°C° 0 mm 1 m/s 690 mmHg 98%
    04:00 +15°C° 0 mm 0 m/s 690 mmHg 98%
    05:00 +16°C° 0 mm 0 m/s 690 mmHg 97%
    06:00 +18°C° 0 mm 0 m/s 691 mmHg 95%
    07:00 +19°C° 0 mm 0 m/s 692 mmHg 93%
    08:00 +24°C° 0 mm 1 m/s 693 mmHg 80%
    09:00 +27°C° 0 mm 1 m/s 693 mmHg 67%
    10:00 +30°C° 0 mm 1 m/s 694 mmHg 54%
    11:00 +31°C° 0 mm 2 m/s 693 mmHg 49%
    12:00 +32°C° 0 mm 2 m/s 693 mmHg 45%
    13:00 +34°C° 0 mm 2 m/s 692 mmHg 40%
    14:00 +32°C° 0 mm 2 m/s 692 mmHg 42%
    15:00 +32°C° 0 mm 2 m/s 691 mmHg 43%
    16:00 +32°C° 0 mm 2 m/s 690 mmHg 45%
    17:00 +29°C° 0,1 mm 2 m/s 691 mmHg 55%
    18:00 +26°C° 0,1 mm 2 m/s 691 mmHg 65%
    19:00 +24°C° 0,1 mm 1 m/s 691 mmHg 75%
    20:00 +23°C° 0 mm 1 m/s 691 mmHg 80%
    21:00 +22°C° 0 mm 1 m/s 691 mmHg 85%
    22:00 +21°C° 0 mm 1 m/s 692 mmHg 90%
    23:00 +21°C° 0 mm 1 m/s 692 mmHg 92%

    26 Ianuarie, Joi

    Timp Temperatura Precipitaţii Vânt Presiune Umiditate
    00:00 +20°C° 0 mm 1 m/s 691 mmHg 94%
    01:00 +20°C° 0 mm 1 m/s 691 mmHg 96%
    02:00 +20°C° 0 mm 1 m/s 691 mmHg 97%
    03:00 +20°C° 0 mm 1 m/s 691 mmHg 97%
    04:00 +19°C° 0 mm 1 m/s 691 mmHg 98%
    05:00 +20°C° 0 mm 1 m/s 691 mmHg 96%
    06:00 +20°C° 0 mm 1 m/s 692 mmHg 94%
    07:00 +21°C° 0 mm 1 m/s 692 mmHg 92%
    08:00 +24°C° 0 mm 1 m/s 693 mmHg 78%
    09:00 +28°C° 0 mm 1 m/s 693 mmHg 65%
    10:00 +31°C° 0 mm 1 m/s 694 mmHg 51%
    11:00 +33°C° 0 mm 1 m/s 693 mmHg 46%
    12:00 +34°C° 0 mm 1 m/s 693 mmHg 40%
    13:00 +35°C° 0 mm 1 m/s 692 mmHg 35%
    14:00 +34°C° 0,1 mm 1 m/s 692 mmHg 37%
    15:00 +34°C° 0,1 mm 1 m/s 691 mmHg 39%
    16:00 +33°C° 0,1 mm 1 m/s 690 mmHg 41%
    17:00 +30°C° 0 mm 1 m/s 690 mmHg 49%
    18:00 +28°C° 0 mm 1 m/s 690 mmHg 57%
    19:00 +25°C° 0 mm 1 m/s 690 mmHg 64%
    20:00 +24°C° 0,1 mm 1 m/s 691 mmHg 71%
    21:00 +23°C° 0,1 mm 1 m/s 691 mmHg 77%
    22:00 +22°C° 0,1 mm 1 m/s 692 mmHg 83%
    23:00 +22°C° 0 mm 1 m/s 692 mmHg 87%
    Arată mai mult